[[{"header":{"parameterUnit":"m.s-1","parameterCategory":1,"la1":30.2991,"la2":30.254,"lo1":-89.0895,"lo2":-89.0444,"dy":0.0017,"dx":0.0017,"nx":28,"ny":28,"refTime":"2023-10-01T09:00:00:Z","depth":0,"parameterNumber":2,"parameterNumberName":"U-component_of_WINDS"},"data":[0,0,0,0,0,0,0,0,0,0,0,0,0,0,0,0,0,0,0,0,0,0,0,0,0,0,0,0,0,0,0,0,0,0,0,0,0,0,0,0,0,0,0,0,0,0,0,0,0,0,0,0,0,0,0,0,0,0,-3.0257,-3.0258,0,-3.0339,-3.0339,-3.034,-3.0251,-3.0247,-3.0244,-3.0241,-3.0328,-3.0334,-3.0339,0,0,0,0,0,0,0,0,0,0,0,0,0,-3.0028,-3.0033,-3.0257,-3.0258,-3.0259,-3.0338,-3.034,-3.0341,-3.0251,-3.0247,-3.0243,-3.0239,-3.0326,-3.0333,-3.034,0,0,0,0,0,0,0,0,0,0,0,0,0,-3.012,-3.0034,-3.0257,-3.0224,-3.0222,-3.0338,-3.034,-3.0341,-3.0252,-3.0247,-3.0242,-3.0237,-3.0324,-3.0332,-3.034,-3.0494,0,0,-3.0366,-3.0369,0,0,0,0,0,0,0,0,-3.0115,-3.0129,-3.0228,-3.0227,-3.0224,-3.0279,-3.0291,-3.0393,-3.0254,-3.0241,-3.0241,-3.0235,-3.0316,-3.0325,-3.0352,-3.0498,-3.0502,-3.0366,-3.0372,-3.0375,-3.0377,0,0,0,0,0,0,0,-3.0109,-3.0125,-3.0289,-3.0229,-3.0227,-3.0206,-3.0214,-3.031,-3.0307,-3.0242,-3.0235,-3.0246,-3.0314,-3.0344,-3.0353,-3.0503,-3.0366,-3.0374,-3.0379,-3.0382,-3.0782,-3.0788,0,0,0,0,0,0,-3.0106,-3.012,-3.0287,-3.0292,-3.0156,-3.0215,-3.0223,-3.0267,-3.0305,-3.0306,-3.025,-3.0241,-3.0332,-3.0343,-3.0356,-3.054,-3.0375,-3.0383,-3.0388,-3.0777,-3.0784,-3.079,0,0,0,0,0,0,-3.0101,-3.0121,-3.0283,-3.0204,-3.0223,-3.0224,-3.0274,-3.0271,-3.03,-3.0312,-3.0311,-3.0281,-3.0329,-3.0344,-3.0461,-3.0542,-3.0386,-3.0394,-3.077,-3.0779,-3.0787,-3.0909,0,0,0,0,0,0,-3.0095,-3.012,-3.0178,-3.0206,-3.0228,-3.0386,-3.0279,-3.0276,-3.0314,-3.0304,-3.034,-3.0341,-3.0326,-3.0449,-3.0469,-3.055,-3.04,-3.0763,-3.0774,-3.0784,-3.0898,-3.0921,-3.094,0,0,0,0,0,-3.0087,-3.021,-3.0181,-3.0202,-3.03,-3.0391,-3.0404,-3.0382,-3.0321,-3.038,-3.0387,-3.034,-3.0529,-3.0461,-3.0483,-3.0569,-3.0758,-3.0771,-3.0783,-3.0888,-3.0916,-3.094,0,0,0,0,0,0,-3.0193,-3.0213,-3.0182,-3.0317,-3.0353,-3.0376,-3.0449,-3.0412,-3.0467,-3.0455,-3.0427,-3.0436,-3.056,-3.0575,-3.05,-3.072,-3.0634,-3.0651,-3.0706,-3.0733,-3.0753,-3.0748,-3.0407,0,0,0,0,0,-3.0231,-3.0302,-3.0317,-3.0435,-3.0454,-3.0449,-3.0488,-3.0468,-3.0505,-3.052,-3.0535,-3.0574,-3.0642,-3.0688,-3.0751,-3.0899,-3.0907,-3.0968,-3.0989,-3.1006,-3.1023,-3.1104,-3.1132,-3.0832,-3.0831,-3.0831,0,0,-3.0313,-3.0332,-3.0379,-3.0456,-3.0482,-3.0558,-3.0462,-3.0546,-3.0603,-3.0533,-3.0644,-3.0657,-3.0698,-3.0832,-3.0891,-3.0848,-3.1108,-3.1023,-3.1037,-3.1044,-3.112,-3.1149,-3.1174,-3.084,-3.0839,-3.0837,0,0,-3.05,-3.0521,-3.0622,-3.065,-3.0689,-3.0685,-3.0709,-3.0738,-3.0743,-3.0854,-3.0803,-3.0871,-3.0988,-3.102,-3.1052,-3.1251,-3.1211,-3.1272,-3.1384,-3.1464,-3.1487,-3.1508,-3.1582,-3.1608,-3.1288,-3.1288,-3.1289,0,-3.0597,-3.0708,-3.068,-3.0768,-3.0804,-3.0742,-3.0846,-3.0874,-3.0933,-3.096,-3.091,-3.1057,-3.108,-3.1221,-3.1269,-3.1296,-3.1325,-3.1269,-3.1486,-3.1507,-3.1526,-3.1596,-3.1623,-3.1296,-3.1295,-3.1294,-3.1294,0,-3.0825,-3.0903,-3.098,-3.1038,-3.1082,-3.1178,-3.1165,-3.1214,-3.119,-3.1192,-3.1306,-3.1332,-3.14,-3.1431,-3.1409,-3.157,-3.1542,-3.149,-3.1403,-3.1562,-3.1628,-3.1654,-3.1307,-3.1304,-3.1302,-3.13,0,0,-3.1083,-3.1123,-3.1152,-3.1178,-3.1217,-3.1277,-3.137,-3.1435,-3.1478,-3.1521,-3.1599,-3.17,-3.1652,-3.1688,-3.1669,-3.1738,-3.1898,-3.1678,-3.1678,-3.172,-3.2079,-3.212,-3.2151,-3.187,-3.1875,-3.1878,-3.2076,0,-3.1273,-3.1433,-3.141,-3.1565,-3.1638,-3.158,-3.1661,-3.1695,-3.1698,-3.1762,-3.1766,-3.1838,-3.1768,-3.179,-3.1856,-3.1864,-3.197,-3.1849,-3.1945,-3.1949,-3.1939,-3.2184,-3.2228,-3.2413,-3.2101,-3.2105,-3.2108,0,-3.1516,-3.1566,-3.1728,-3.1756,-3.1786,-3.1859,-3.1918,-3.1978,-3.2015,-3.2013,-3.2053,-3.2022,-3.2117,-3.2026,-3.2158,-3.2076,-3.2114,-3.2124,-3.2131,-3.2141,-3.204,-3.2204,-3.2471,-3.25,-3.2148,-3.2145,-3.2142,0,-3.1691,-3.1799,-3.191,-3.1933,-3.1968,-3.2022,-3.2039,-3.2071,-3.2112,-3.2163,-3.219,-3.2252,-3.2287,-3.2336,-3.2323,-3.2258,-3.2459,-3.2366,-3.2462,-3.2463,-3.2509,-3.2507,-3.2789,-3.2529,-3.2529,-3.2528,-3.2528,0,-3.1907,-3.2009,-3.1989,-3.2058,-3.2171,-3.2144,-3.2257,-3.2267,-3.2296,-3.2367,-3.232,-3.2388,-3.2365,-3.2433,-3.2423,-3.2535,-3.255,-3.2553,-3.255,-3.2559,-3.2559,-3.2585,-3.2573,-3.2535,-3.2534,-3.2532,-3.2531,0,-3.2122,-3.2113,-3.223,-3.2253,-3.2261,-3.2344,-3.2364,-3.243,-3.2429,-3.252,-3.2539,-3.2539,-3.2616,-3.2607,-3.2693,-3.2686,-3.2826,-3.2806,-3.2814,-3.281,-3.2907,-3.2899,-3.3218,-3.326,-3.2971,-3.2973,-3.2976,0,-3.2262,-3.2339,-3.237,-3.2413,-3.2434,-3.2505,-3.2546,-3.2522,-3.2568,-3.2616,-3.2676,-3.2748,-3.2805,-3.2931,-3.2939,-3.3005,-3.2988,-3.3095,-3.2998,-3.3005,-3.2993,-3.299,-3.2998,-3.3116,-3.3119,-3.3121,-3.3124,0,-3.2511,-3.2503,-3.2563,-3.2623,-3.2673,-3.2719,-3.2761,-3.2799,-3.278,-3.2833,-3.291,-3.2954,-3.3042,-3.3115,-3.3177,-3.3196,-3.3159,-3.3154,-3.318,-3.3191,-3.3194,-3.3196,-3.2869,-3.3147,-3.3145,-3.3143,-3.3142,-3.3141,-3.2695,-3.2761,-3.2793,-3.2863,-3.2891,-3.2931,-3.2994,-3.3,-3.3064,-3.3133,-3.3115,-3.3203,-3.3239,-3.3318,-3.3344,-3.3414,-3.3375,-3.3412,-3.3422,-3.3433,-3.3445,-3.318,-3.3425,-3.3424,-3.3424,-3.3423,-3.3423,0,-3.2944,-3.2962,-3.3025,-3.3085,-3.314,-3.3096,-3.314,-3.3189,-3.3267,-3.3303,-3.3359,-3.3449,-3.352,-3.3534,-3.3602,-3.3655,-3.364,-3.3674,-3.3671,-3.3677,-3.3475,-3.3447,-3.3686,-3.3686,-3.3686,-3.3686,-3.3686,-3.3685,-3.308,-3.3191,-3.3186,-3.3311,-3.3328,-3.3413,-3.3442,-3.3479,-3.3508,-3.3609,-3.3668,-3.3675,-3.3703,-3.3773,-3.3837,-3.3839,-3.3868,-3.391,-3.3906,-3.3717,-3.3691,-3.3666,-3.364,-3.3915,-3.3916,-3.4103,-3.4104,-3.4106]},{"header":{"parameterUnit":"m.s-1","parameterCategory":1,"la1":30.2991,"la2":30.254,"lo1":-89.0895,"lo2":-89.0444,"dy":0.0017,"dx":0.0017,"nx":28,"ny":28,"refTime":"2023-10-01T09:00:00:Z","depth":0,"parameterNumber":3,"parameterNumberName":"V-component_of_WINDS"},"data":[0,0,0,0,0,0,0,0,0,0,0,0,0,0,0,0,0,0,0,0,0,0,0,0,0,0,0,0,0,0,0,0,0,0,0,0,0,0,0,0,0,0,0,0,0,0,0,0,0,0,0,0,0,0,0,0,0,0,-2.5334,-2.5333,0,-2.5302,-2.5301,-2.5301,-2.5249,-2.5248,-2.5248,-2.5247,-2.5214,-2.5214,-2.5214,0,0,0,0,0,0,0,0,0,0,0,0,0,-2.535,-2.535,-2.5334,-2.5333,-2.5333,-2.5302,-2.5301,-2.5301,-2.525,-2.5248,-2.5247,-2.5246,-2.5214,-2.5214,-2.5214,0,0,0,0,0,0,0,0,0,0,0,0,0,-2.5333,-2.535,-2.5334,-2.5304,-2.5301,-2.5302,-2.5301,-2.5301,-2.525,-2.5248,-2.5247,-2.5246,-2.5214,-2.5214,-2.5214,-2.5242,0,0,-2.5214,-2.5214,0,0,0,0,0,0,0,0,-2.5334,-2.5332,-2.5308,-2.5306,-2.5302,-2.5278,-2.5295,-2.5281,-2.525,-2.5269,-2.5247,-2.5245,-2.5236,-2.5235,-2.5232,-2.5241,-2.5239,-2.5214,-2.5214,-2.5214,-2.5214,0,0,0,0,0,0,0,-2.5335,-2.5333,-2.5321,-2.5308,-2.5304,-2.5291,-2.5287,-2.5292,-2.5261,-2.5267,-2.5264,-2.526,-2.5235,-2.5232,-2.523,-2.5239,-2.5214,-2.5214,-2.5214,-2.5214,-2.5267,-2.5268,0,0,0,0,0,0,-2.5341,-2.5335,-2.5322,-2.532,-2.5315,-2.5292,-2.5288,-2.5287,-2.5261,-2.5256,-2.5262,-2.5258,-2.5232,-2.5231,-2.5229,-2.5258,-2.5214,-2.5214,-2.5214,-2.5265,-2.5267,-2.5269,0,0,0,0,0,0,-2.5341,-2.534,-2.5323,-2.5326,-2.5323,-2.5293,-2.5293,-2.5287,-2.5285,-2.5257,-2.5251,-2.5265,-2.5231,-2.5229,-2.5239,-2.5257,-2.5214,-2.5214,-2.5264,-2.5266,-2.5268,-2.5319,0,0,0,0,0,0,-2.5342,-2.5341,-2.5351,-2.5327,-2.5323,-2.5334,-2.5294,-2.5288,-2.5285,-2.528,-2.5258,-2.5253,-2.523,-2.5239,-2.5239,-2.5256,-2.5214,-2.5262,-2.5265,-2.5267,-2.5315,-2.5323,-2.5329,0,0,0,0,0,-2.5343,-2.5368,-2.5352,-2.5351,-2.5336,-2.5335,-2.5333,-2.5306,-2.5286,-2.5296,-2.5278,-2.5253,-2.5255,-2.524,-2.524,-2.5257,-2.5261,-2.5264,-2.5267,-2.5313,-2.5321,-2.5328,0,0,0,0,0,0,-2.5395,-2.5364,-2.5346,-2.5364,-2.5353,-2.5327,-2.5339,-2.5317,-2.5311,-2.5306,-2.5273,-2.5269,-2.5282,-2.5271,-2.5255,-2.5282,-2.5254,-2.5257,-2.5289,-2.5297,-2.5303,-2.5305,-2.5214,0,0,0,0,0,-2.5409,-2.5411,-2.5383,-2.5402,-2.5397,-2.5369,-2.5368,-2.5348,-2.5335,-2.5329,-2.5312,-2.53,-2.5297,-2.5297,-2.5293,-2.5314,-2.5307,-2.5325,-2.5332,-2.5337,-2.534,-2.5348,-2.5355,-2.5279,-2.5279,-2.5279,0,0,-2.5437,-2.542,-2.5424,-2.5412,-2.5401,-2.5403,-2.5365,-2.537,-2.5371,-2.533,-2.5338,-2.5324,-2.5309,-2.5324,-2.5329,-2.5314,-2.536,-2.5341,-2.5346,-2.5346,-2.5352,-2.5359,-2.5366,-2.5281,-2.5281,-2.528,0,0,-2.549,-2.5478,-2.5491,-2.548,-2.5463,-2.5444,-2.5447,-2.5424,-2.5413,-2.542,-2.5389,-2.539,-2.5387,-2.5377,-2.5371,-2.5418,-2.5394,-2.5418,-2.5451,-2.5459,-2.5465,-2.5471,-2.5486,-2.5492,-2.5421,-2.5421,-2.5421,0,-2.5527,-2.5529,-2.55,-2.5506,-2.5501,-2.5464,-2.5476,-2.5467,-2.545,-2.5447,-2.5431,-2.5425,-2.5412,-2.5423,-2.5434,-2.5431,-2.5433,-2.5419,-2.5467,-2.5472,-2.5476,-2.549,-2.5496,-2.5424,-2.5423,-2.5423,-2.5423,0,-2.5575,-2.5577,-2.5589,-2.5573,-2.557,-2.5579,-2.555,-2.555,-2.5531,-2.5513,-2.552,-2.5503,-2.5494,-2.5495,-2.5477,-2.5503,-2.5494,-2.5473,-2.5444,-2.5487,-2.5499,-2.5504,-2.5428,-2.5427,-2.5426,-2.5425,0,0,-2.566,-2.5626,-2.5631,-2.5622,-2.5601,-2.5601,-2.5608,-2.5599,-2.5599,-2.5589,-2.5593,-2.559,-2.557,-2.5563,-2.5543,-2.5551,-2.5586,-2.5528,-2.5527,-2.5538,-2.5612,-2.5627,-2.5634,-2.5571,-2.5572,-2.5572,-2.5613,0,-2.5706,-2.5716,-2.569,-2.5706,-2.5706,-2.567,-2.5676,-2.5663,-2.5647,-2.5644,-2.5626,-2.5624,-2.5599,-2.5594,-2.56,-2.5581,-2.5601,-2.5578,-2.5573,-2.5573,-2.5577,-2.5641,-2.5657,-2.5696,-2.5618,-2.5619,-2.5619,0,-2.5762,-2.5753,-2.577,-2.5745,-2.5744,-2.575,-2.5739,-2.5738,-2.5721,-2.5709,-2.5701,-2.5677,-2.5681,-2.5654,-2.5658,-2.5643,-2.5639,-2.563,-2.563,-2.5628,-2.5598,-2.5639,-2.5708,-2.5713,-2.5627,-2.5626,-2.5626,0,-2.582,-2.5813,-2.5821,-2.5815,-2.5787,-2.5792,-2.578,-2.5763,-2.5758,-2.5749,-2.5745,-2.5736,-2.5731,-2.5724,-2.5698,-2.5681,-2.5705,-2.5676,-2.5693,-2.5694,-2.5699,-2.5699,-2.5768,-2.5699,-2.5699,-2.5699,-2.5699,0,-2.5875,-2.5885,-2.5846,-2.5851,-2.5862,-2.5831,-2.5842,-2.5827,-2.5812,-2.5812,-2.5781,-2.5782,-2.5748,-2.5745,-2.5725,-2.573,-2.5729,-2.5718,-2.5712,-2.572,-2.5721,-2.5716,-2.5712,-2.5701,-2.57,-2.57,-2.57,0,-2.5941,-2.5916,-2.5922,-2.5894,-2.5888,-2.5897,-2.5873,-2.5876,-2.5857,-2.5858,-2.5857,-2.5827,-2.5822,-2.5795,-2.5784,-2.577,-2.5783,-2.5772,-2.5788,-2.5784,-2.5802,-2.58,-2.5869,-2.5876,-2.5805,-2.5806,-2.5806,0,-2.5977,-2.5984,-2.5957,-2.5955,-2.5945,-2.5943,-2.5938,-2.5907,-2.5904,-2.5885,-2.589,-2.5882,-2.5874,-2.5867,-2.5845,-2.5835,-2.5823,-2.5848,-2.5822,-2.5829,-2.5822,-2.5821,-2.5821,-2.5853,-2.5854,-2.5855,-2.5856,0,-2.6042,-2.6029,-2.6023,-2.6013,-2.6007,-2.5998,-2.5986,-2.5987,-2.5953,-2.595,-2.5944,-2.5938,-2.5925,-2.5918,-2.5904,-2.5892,-2.5868,-2.5864,-2.5867,-2.5875,-2.5883,-2.5877,-2.5802,-2.5863,-2.5862,-2.5861,-2.5861,-2.5861,-2.6093,-2.6097,-2.6078,-2.6073,-2.6061,-2.605,-2.6051,-2.6032,-2.6026,-2.6014,-2.5996,-2.5992,-2.5974,-2.5954,-2.5943,-2.5939,-2.5925,-2.5931,-2.5932,-2.5933,-2.5936,-2.5885,-2.5937,-2.5936,-2.5936,-2.5936,-2.5936,0,-2.6155,-2.6141,-2.6136,-2.6121,-2.6116,-2.6094,-2.6079,-2.6076,-2.6073,-2.6059,-2.6051,-2.6043,-2.6035,-2.6012,-2.6001,-2.6002,-2.599,-2.6,-2.5999,-2.5996,-2.595,-2.5947,-2.6009,-2.6009,-2.6009,-2.6009,-2.6009,-2.6009,-2.6187,-2.6192,-2.6176,-2.6175,-2.616,-2.6156,-2.615,-2.6139,-2.6127,-2.612,-2.6113,-2.6097,-2.6079,-2.6066,-2.6057,-2.605,-2.6047,-2.606,-2.6049,-2.6006,-2.5999,-2.5993,-2.599,-2.606,-2.606,-2.6095,-2.6095,-2.6096]}]]